Flag for United Arab Emirates Weather past 2 weeks in Abu Dhabi, Abu Dhabi, United Arab Emirates

Now
90 °F

Clear.


Feels Like: 105 °F
Forecast: 90 / 100 °F
Wind: 2 mph from North

Location: Abu Dhabi Bateen Airport

Current Time: Sep 20, 2014 at 6:20:40 AM

Latest Report: Sep 20, 2014 at 6:00 AM


Visibility: 10 mi

Pressure: 29.68 "Hg

Humidity: 71%

Dew point: 79 °F

Location of Abu DhabiLocation

Historic Weather in Abu Dhabi — Graph

°F

Abu Dhabi temperature yesterday

Maximum temperature yesterday: 99 °F (at 12:00 PM)
Minimum temperature yesterday: 86 °F (at 3:00 AM)
Average temperature yesterday: 91 °F

Past Weeks' High & Low Weather Summary

 TemperatureHumidityPressure
High109 °F (Sep 9, 2:00 PM)89% (Sep 8, 3:00 AM)29.80 "Hg (Sep 8, 3:00 AM)
Low84 °F (Sep 5, 6:00 AM)12% (Sep 6, 1:00 PM)29.47 "Hg (Sep 5, 5:00 AM)
Average93 °F62%29.60 "Hg
* Reported Sep 5 5:00 AM — Sep 20 5:00 AM, Abu Dhabi, Weather by CustomWeather, © 2014

Note: Actual official high and low records may vary slightly from our data, if they occured in-between our weather recording intervals... More about our weather records

Advertising

Abu Dhabi weather history for previous 24 hours

 ConditionsComfort  
Time TempWeatherWind HumidityBarometerVisibility
5:00 AM
Sep 20
88 °FClear.5 mph75%29.68 "Hg10 mi
4:00 AM90 °FClear.3 mph75%29.65 "Hg10 mi
3:00 AM90 °FClear.3 mph75%29.65 "Hg10 mi
2:00 AM90 °FClear.6 mph75%29.68 "Hg10 mi
1:00 AM91 °FPassing clouds.3 mph63%29.68 "HgN/A
12:00 AM90 °FClear.2 mph67%29.68 "Hg10 mi
11:00 PM
Sep 19
90 °FClear.3 mph67%29.71 "Hg10 mi
10:00 PM91 °FClear.6 mph71%29.74 "Hg10 mi
9:00 PM91 °FClear.6 mph71%29.71 "Hg10 mi
8:00 PM91 °FClear.8 mph71%29.71 "Hg5 mi
7:00 PM91 °FClear.8 mph75%29.71 "Hg5 mi
6:00 PM95 °FClear.10 mph63%29.71 "Hg6 mi
5:00 PM95 °FClear.10 mph63%29.71 "Hg6 mi
4:00 PM97 °FSunny.13 mph56%29.68 "Hg10 mi
3:00 PM97 °FSunny.14 mph56%29.68 "Hg10 mi
2:00 PM99 °FPassing clouds.14 mph44%29.71 "HgN/A
1:00 PM99 °FClear.8 mph42%29.74 "Hg6 mi
12:00 PM99 °FClear.6 mph37%29.77 "Hg6 mi
10:00 AM93 °FClear.3 mph63%29.80 "Hg5 mi
9:00 AM90 °FPassing clouds.5 mph75%29.80 "Hg5 mi
8:00 AM88 °FClear.No wind79%29.77 "Hg4 mi
7:00 AM86 °FClear.1 mph84%29.77 "Hg4 mi
6:00 AM86 °FClear.1 mph84%29.74 "Hg5 mi
Weather by CustomWeather, © 2014

See weather overviewHow to use our weather pages